Location: Muenchen
(48.1800°N, 11.5800°E)
Time: 22:41:11
(UTC+02:00)

Iridium 36 - Visible Passes

Search period start: 28 May 2016 00:00
Search period end: 07 June 2016 00:00
Orbit: 772 x 775 km, 86.4° (Epoch: 28 May)

Date Brightness Start Highest point End Pass type
(mag) Time Alt. Az. Time Alt. Az. Time Alt. Az.
28 May 7.9 03:06:35 10° NNE 03:10:27 21° ENE 03:14:18 10° ESE visible
29 May 8.3 02:33:15 10° NE 02:35:10 12° ENE 02:37:05 10° E visible
29 May 5.7 04:11:30 10° N 04:16:44 79° E 04:21:56 10° S visible
30 May 6.6 03:36:49 10° N 03:41:49 44° E 03:46:46 10° SSE visible
31 May 7.5 03:02:25 10° NNE 03:06:46 26° ENE 03:11:04 10° SE visible
01 Jun 8.1 02:28:32 10° NNE 02:31:33 15° ENE 02:34:33 10° ESE visible
01 Jun 5.5 04:07:40 10° N 04:12:53 81° W 04:18:05 10° S visible
02 Jun 6.1 03:32:53 10° N 03:38:02 57° E 03:43:08 10° SSE visible
03 Jun 7.1 02:58:21 10° NNE 03:03:02 33° ENE 03:07:41 10° SE visible
04 Jun 7.8 02:24:10 10° NNE 02:27:54 19° ENE 02:31:35 10° ESE visible
04 Jun 5.6 04:03:52 10° N 04:09:00 63° W 04:14:08 10° S visible
05 Jun 8.2 01:51:07 10° NE 01:52:35 11° ENE 01:54:04 10° E visible
05 Jun 5.7 03:28:59 10° N 03:34:13 74° E 03:39:24 10° S visible
06 Jun 6.6 02:54:20 10° N 02:59:17 42° E 03:04:12 10° SSE visible
